Retour au catalogue

SAMSON 1

ActifScienceSSO
NORAD 47937·PAYLOAD·🇮🇱 Israel
Ce nom de satellite n'a pas encore été confirmé par des sources officielles.

Lancé Mar 22, 2021 depuis Baikonur Cosmodrome

Loading…

Prochains Passages (prochaines 24 heures)

TLE

FraisSource: Space-Track

Époque: Sep 14, 2026, 15:14 UTC

1 47937U 21022F   26257.63485200  .00006989  00000-0  21253-3 0  9995
2 47937  97.3767 158.2776 0011022 124.5364 235.6921 15.34292305303422

Suivez SAMSON 1 en temps réel avec AllMySat

Download on the App Store